Satellite: ARISSAT1
Catalog number: 37772
Epoch time: 12004.04884568
Element set: 479
Inclination: 051.6129 deg
RA of node: 213.1240 deg
Eccentricity: 0.0007478
Arg of perigee: 255.9283 deg
Mean anomaly: 104.1611 deg
Mean motion: 16.41716225 rev/day
Decay rate: 1.3494171e-01 rev/day^2
Epoch rev: 2407
Checksum: 290
Satellite: JUGNU
Catalog number: 37839
Epoch time: 12005.93060571
Element set: 62
Inclination: 019.9635 deg
RA of node: 267.2409 deg
Eccentricity: 0.0018930
Arg of perigee: 224.3163 deg
Mean anomaly: 135.5678 deg
Mean motion: 14.12014815 rev/day
Decay rate: 6.20e-06 rev/day^2
Epoch rev: 1214
Checksum: 269
Satellite: SRMSAT
Catalog number: 37841
Epoch time: 12005.90498162
Element set: 62
Inclination: 019.9707 deg
RA of node: 269.0773 deg
Eccentricity: 0.0012160
Arg of perigee: 199.3803 deg
Mean anomaly: 160.6195 deg
Mean motion: 14.10105714 rev/day
Decay rate: 2.64e-06 rev/day^2
Epoch rev: 1211
Checksum: 266
Satellite: RAX-2
Catalog number: 37853
Epoch time: 12005.90651690
Element set: 61
Inclination: 101.7078 deg
RA of node: 332.0065 deg
Eccentricity: 0.0252358
Arg of perigee: 095.8575 deg
Mean anomaly: 267.1447 deg
Mean motion: 14.78362744 rev/day
Decay rate: 4.042e-05 rev/day^2
Epoch rev: 1025
Checksum: 290
Satellite: AUBIESAT
Catalog number: 37854
Epoch time: 12005.82910208
Element set: 64
Inclination: 101.7099 deg
RA of node: 331.9514 deg
Eccentricity: 0.0254196
Arg of perigee: 095.7566 deg
Mean anomaly: 267.2674 deg
Mean motion: 14.78598485 rev/day
Decay rate: 4.226e-05 rev/day^2
Epoch rev: 1023
Checksum: 314
Satellite: HRBE
Catalog number: 37855
Epoch time: 12005.89855686
Element set: 63
Inclination: 101.7109 deg
RA of node: 332.0507 deg
Eccentricity: 0.0254354
Arg of perigee: 095.3538 deg
Mean anomaly: 267.6695 deg
Mean motion: 14.78541060 rev/day
Decay rate: 4.011e-05 rev/day^2
Epoch rev: 1024
Checksum: 293
/EX
More information about the Keps
mailing list